• In Deutschland
  • Länderverzeichnis
  • Für 7 Tage
  • Wassertemperatur
  • Satellitenkarten
  • Wetterkarte
  • Widgets
  • user-avatar
    Anmelden

    Stündliche Wetter Lankaran

    Heute, 30 April, Sonntag

    Zeit Temperatur Niederschläge Wind Luftdruck Luftfeuchtigkeit
    00:00 +8°C° 0,1 mm 1 m/S 633 mmHg 85%
    01:00 +8°C° 0 mm 1 m/S 633 mmHg 85%
    02:00 +8°C° 0 mm 1 m/S 633 mmHg 85%
    03:00 +6°C° 0 mm 2 m/S 632 mmHg 83%
    04:00 +8°C° 0 mm 1 m/S 633 mmHg 82%
    05:00 +9°C° 0 mm 1 m/S 633 mmHg 81%
    06:00 +9°C° 0 mm 1 m/S 633 mmHg 79%
    07:00 +12°C° 0 mm 2 m/S 634 mmHg 69%
    08:00 +14°C° 0 mm 2 m/S 635 mmHg 59%
    09:00 +16°C° 0 mm 3 m/S 636 mmHg 46%
    10:00 +17°C° 0 mm 3 m/S 635 mmHg 44%
    11:00 +18°C° 0 mm 3 m/S 635 mmHg 42%
    12:00 +19°C° 0 mm 3 m/S 635 mmHg 40%
    13:00 +19°C° 0 mm 3 m/S 635 mmHg 40%
    14:00 +19°C° 0 mm 3 m/S 635 mmHg 40%
    15:00 +19°C° 0 mm 3 m/S 635 mmHg 40%
    16:00 +18°C° 0,1 mm 3 m/S 634 mmHg 45%
    17:00 +17°C° 0,1 mm 2 m/S 634 mmHg 51%
    18:00 +16°C° 0,1 mm 2 m/S 634 mmHg 56%
    19:00 +14°C° 0,1 mm 2 m/S 633 mmHg 56%
    20:00 +13°C° 0,1 mm 1 m/S 633 mmHg 57%
    21:00 +12°C° 0,1 mm 1 m/S 633 mmHg 57%
    22:00 +11°C° 0 mm 1 m/S 633 mmHg 59%
    23:00 +11°C° 0 mm 1 m/S 633 mmHg 61%

    Morgen, 1 Mai, Montag

    Zeit Temperatur Niederschläge Wind Luftdruck Luftfeuchtigkeit
    00:00 +10°C° 0 mm 1 m/S 633 mmHg 63%
    01:00 +10°C° 0 mm 1 m/S 633 mmHg 63%
    02:00 +9°C° 0 mm 1 m/S 632 mmHg 62%
    03:00 +9°C° 0 mm 1 m/S 632 mmHg 62%
    04:00 +10°C° 0 mm 1 m/S 633 mmHg 61%
    05:00 +10°C° 0 mm 1 m/S 633 mmHg 60%
    06:00 +11°C° 0 mm 1 m/S 633 mmHg 59%
    07:00 +14°C° 0 mm 1 m/S 634 mmHg 51%
    08:00 +16°C° 0 mm 1 m/S 635 mmHg 44%
    09:00 +18°C° 0 mm 2 m/S 636 mmHg 36%
    10:00 +19°C° 0 mm 2 m/S 636 mmHg 36%
    11:00 +20°C° 0 mm 2 m/S 636 mmHg 35%
    12:00 +20°C° 0 mm 2 m/S 636 mmHg 35%
    13:00 +20°C° 0 mm 2 m/S 635 mmHg 36%
    14:00 +20°C° 0 mm 2 m/S 635 mmHg 38%
    15:00 +20°C° 0 mm 2 m/S 635 mmHg 40%
    16:00 +19°C° 0 mm 2 m/S 635 mmHg 47%
    17:00 +18°C° 0 mm 2 m/S 634 mmHg 53%
    18:00 +16°C° 0 mm 2 m/S 634 mmHg 60%
    19:00 +15°C° 0 mm 2 m/S 634 mmHg 60%
    20:00 +14°C° 0 mm 2 m/S 634 mmHg 61%
    21:00 +13°C° 0 mm 1 m/S 634 mmHg 61%
    22:00 +13°C° 0 mm 1 m/S 634 mmHg 60%
    23:00 +12°C° 0 mm 1 m/S 634 mmHg 60%

    übermorgen, 2 Mai, Dienstag

    Zeit Temperatur Niederschläge Wind Luftdruck Luftfeuchtigkeit
    00:00 +12°C° 0 mm 1 m/S 634 mmHg 59%
    01:00 +12°C° 0 mm 1 m/S 633 mmHg 61%
    02:00 +11°C° 0 mm 1 m/S 633 mmHg 62%
    03:00 +10°C° 0 mm 0 m/S 633 mmHg 64%
    04:00 +12°C° 0 mm 1 m/S 633 mmHg 64%
    05:00 +12°C° 0 mm 1 m/S 633 mmHg 65%
    06:00 +13°C° 0 mm 1 m/S 633 mmHg 66%
    07:00 +14°C° 0 mm 1 m/S 634 mmHg 59%
    08:00 +16°C° 0 mm 1 m/S 634 mmHg 52%
    09:00 +18°C° 0 mm 2 m/S 635 mmHg 45%
    10:00 +18°C° 0 mm 2 m/S 635 mmHg 44%
    11:00 +19°C° 0 mm 2 m/S 635 mmHg 43%
    12:00 +20°C° 0 mm 3 m/S 635 mmHg 43%
    13:00 +20°C° 0 mm 3 m/S 634 mmHg 44%
    14:00 +20°C° 0 mm 3 m/S 634 mmHg 46%
    15:00 +20°C° 0 mm 3 m/S 634 mmHg 48%
    16:00 +18°C° 0,6 mm 2 m/S 634 mmHg 56%
    17:00 +17°C° 0,6 mm 2 m/S 633 mmHg 64%
    18:00 +15°C° 0,6 mm 2 m/S 633 mmHg 71%
    19:00 +15°C° 0,4 mm 2 m/S 633 mmHg 75%
    20:00 +14°C° 0,4 mm 1 m/S 633 mmHg 78%
    21:00 +13°C° 0,4 mm 1 m/S 633 mmHg 82%
    22:00 +13°C° 0,1 mm 1 m/S 633 mmHg 80%
    23:00 +13°C° 0,1 mm 1 m/S 632 mmHg 79%

    3 Mai, Mittwoch

    Zeit Temperatur Niederschläge Wind Luftdruck Luftfeuchtigkeit
    00:00 +13°C° 0,1 mm 2 m/S 632 mmHg 77%
    01:00 +12°C° 0,1 mm 2 m/S 632 mmHg 77%
    02:00 +12°C° 0,1 mm 2 m/S 631 mmHg 77%
    03:00 +10°C° 0,1 mm 2 m/S 631 mmHg 77%
    04:00 +12°C° 0 mm 2 m/S 631 mmHg 75%
    05:00 +12°C° 0 mm 2 m/S 631 mmHg 72%
    06:00 +13°C° 0 mm 2 m/S 632 mmHg 70%
    07:00 +14°C° 0 mm 3 m/S 632 mmHg 61%
    08:00 +17°C° 0 mm 3 m/S 633 mmHg 52%
    09:00 +19°C° 0 mm 3 m/S 633 mmHg 43%
    10:00 +20°C° 0 mm 4 m/S 633 mmHg 40%
    11:00 +21°C° 0 mm 4 m/S 633 mmHg 38%
    12:00 +21°C° 0 mm 4 m/S 633 mmHg 35%
    13:00 +21°C° 0 mm 4 m/S 633 mmHg 35%
    14:00 +21°C° 0 mm 4 m/S 632 mmHg 35%
    15:00 +22°C° 0 mm 4 m/S 632 mmHg 35%
    16:00 +20°C° 0,1 mm 3 m/S 632 mmHg 41%
    17:00 +19°C° 0,1 mm 3 m/S 631 mmHg 47%
    18:00 +18°C° 0,1 mm 2 m/S 631 mmHg 53%
    19:00 +16°C° 0,1 mm 2 m/S 631 mmHg 52%
    20:00 +15°C° 0,1 mm 2 m/S 631 mmHg 52%
    21:00 +14°C° 0,1 mm 1 m/S 631 mmHg 52%
    22:00 +14°C° 0 mm 1 m/S 631 mmHg 51%
    23:00 +14°C° 0 mm 2 m/S 631 mmHg 49%

    4 Mai, Donnerstag

    Zeit Temperatur Niederschläge Wind Luftdruck Luftfeuchtigkeit
    00:00 +14°C° 0 mm 2 m/S 631 mmHg 48%
    01:00 +13°C° 0,1 mm 2 m/S 631 mmHg 51%
    02:00 +13°C° 0,1 mm 1 m/S 631 mmHg 54%
    03:00 +13°C° 0,1 mm 1 m/S 630 mmHg 57%
    04:00 +13°C° 0,1 mm 2 m/S 630 mmHg 59%
    05:00 +13°C° 0,1 mm 2 m/S 631 mmHg 60%
    06:00 +13°C° 0,1 mm 2 m/S 631 mmHg 62%
    07:00 +14°C° 0 mm 2 m/S 631 mmHg 57%
    08:00 +16°C° 0 mm 2 m/S 632 mmHg 51%
    09:00 +17°C° 0 mm 3 m/S 632 mmHg 46%
    10:00 +17°C° 0,1 mm 3 m/S 632 mmHg 47%
    11:00 +18°C° 0,1 mm 3 m/S 632 mmHg 47%
    12:00 +18°C° 0,1 mm 3 m/S 632 mmHg 48%
    13:00 +18°C° 0,3 mm 3 m/S 632 mmHg 49%
    14:00 +18°C° 0,3 mm 3 m/S 632 mmHg 49%
    15:00 +18°C° 0,3 mm 3 m/S 632 mmHg 50%
    16:00 +17°C° 0,2 mm 2 m/S 631 mmHg 55%
    17:00 +16°C° 0,2 mm 2 m/S 631 mmHg 59%
    18:00 +15°C° 0,2 mm 2 m/S 631 mmHg 64%
    19:00 +14°C° 0 mm 1 m/S 631 mmHg 67%
    20:00 +13°C° 0 mm 1 m/S 631 mmHg 70%
    21:00 +12°C° 0 mm 1 m/S 631 mmHg 74%
    22:00 +11°C° 0 mm 1 m/S 631 mmHg 74%
    23:00 +11°C° 0 mm 1 m/S 631 mmHg 73%

    5 Mai, Freitag

    Zeit Temperatur Niederschläge Wind Luftdruck Luftfeuchtigkeit
    00:00 +11°C° 0 mm 1 m/S 631 mmHg 73%
    01:00 +10°C° 0 mm 1 m/S 631 mmHg 74%
    02:00 +10°C° 0 mm 1 m/S 631 mmHg 76%
    03:00 +10°C° 0 mm 1 m/S 631 mmHg 77%
    04:00 +10°C° 0 mm 1 m/S 631 mmHg 75%
    05:00 +11°C° 0 mm 1 m/S 632 mmHg 74%
    06:00 +12°C° 0 mm 1 m/S 632 mmHg 73%
    07:00 +13°C° 0 mm 2 m/S 633 mmHg 66%
    08:00 +15°C° 0 mm 2 m/S 633 mmHg 59%
    09:00 +16°C° 0 mm 2 m/S 634 mmHg 52%
    10:00 +17°C° 0 mm 2 m/S 634 mmHg 51%
    11:00 +18°C° 0 mm 3 m/S 633 mmHg 50%
    12:00 +18°C° 0 mm 3 m/S 633 mmHg 48%
    13:00 +18°C° 0 mm 3 m/S 633 mmHg 48%
    14:00 +19°C° 0 mm 3 m/S 633 mmHg 47%
    15:00 +19°C° 0 mm 3 m/S 632 mmHg 47%
    16:00 +18°C° 0,1 mm 3 m/S 632 mmHg 53%
    17:00 +16°C° 0,1 mm 2 m/S 632 mmHg 58%
    18:00 +15°C° 0,1 mm 2 m/S 632 mmHg 64%
    19:00 +14°C° 0,2 mm 2 m/S 632 mmHg 68%
    20:00 +13°C° 0,2 mm 2 m/S 632 mmHg 71%
    21:00 +10°C° 0,2 mm 2 m/S 632 mmHg 74%
    22:00 +10°C° 0 mm 2 m/S 632 mmHg 74%
    23:00 +10°C° 0 mm 2 m/S 632 mmHg 74%
    Mehr zeigen